Back to catalog

STARLINK-37224

AliveCommunicationsSSO
NORAD 68671·PAYLOAD·🇺🇸 United States

Launched Apr 11, 2026 from Vandenberg Space Force Base

Loading…

Next Passes (next 24 hours)

TLE

FreshSource: CelesTrak SupGP

Epoch: Sep 14, 2026, 21:13 UTC

1 68671C 26077K   26257.88451389 -.00005266  00000+0 -16357-3 0  2570
2 68671  97.2846 127.8382 0001936  93.3556 176.0637 15.33422413    16

Track STARLINK-37224 in real time with AllMySat

Download on the App Store